www.pogodaiklimat.ru

Погода и климат >> Архив погоды >> Пакистан >> Окара


ПОГОДА в Окаре

  • Прогноз погоды в Окаре
  • Монитор погоды в Окаре

АРХИВ ПОГОДЫ в Окаре

Время (UTC), дата Ветер
(напр.,м/с)
 
Видим.   Явления Облачность Т
(С)
Тd
(С)
f
(%)
Тe
(С)
Тes
(С)
Комфортность P
(гПа)
Po
(гПа)
Тmin
(С)
Tmax
(С)
R
(мм)
R24
(мм)
S
(см)
09 12.08 штиль 0 4000 м дым 8/4 1200 м
[Sc diur, vesp Ac As]
+38.0 +25.6 49 +52 +59 опасность
перегрева
999.8 980.0
12 12.08 штиль 0 4000 м мгла 8/4 1200 м
[Sc diur, vesp Ac As]
+38.5 +25.4 48 +53 +54 опасность
перегрева
997.7 997.8 +39.0
15 12.08 штиль 0 4000 м дым 4/4 1200 м
[Sc]
+37.0 +26.0 53 +52 +52 опасность
перегрева
998.1 978.5
18 12.08 штиль 0 4000 м дым ясно +34.0 +25.7 62 +49 +49 опасность
перегрева
999.4 979.4
21 12.08 штиль 0 4000 м дым ясно +32.5 +26.3 70 +49 +49 опасность
перегрева
998.9 979.0
00 13.08 штиль 0 4000 м дым ясно +30.0 +25.8 78 +45 +45 опасность
перегрева
998.2 978.0
03 13.08 штиль 0 4000 м дым ясно +32.0 +25.0 67 +46 +54 опасность
перегрева
999.6 979.5 +28.0
06 13.08 ЮЗ 2 4000 м дым 4/0
[Ac trans]
+35.0 +24.5 55 +48 +62 опасность
перегрева
1000.8 980.8
09 13.08 ЮЗ 2 4000 м дым ясно +38.0 +24.0 45 +49 +65 опасность
перегрева
999.9 980.3
12 13.08 ЮЗ 2 4000 м 5/5 1200 м
[Sc]
+39.0 +25.2 46 +52 +54 опасность
перегрева
998.0 978.4 +39.5
15 13.08 штиль 0 4000 м ясно +36.0 +26.4 58 +53 +53 опасность
перегрева
998.5 978.8
18 13.08 штиль 0 4000 м дым ясно +33.0 +26.1 67 +49 +49 опасность
перегрева
1000.2 980.2
21 13.08 штиль 0 4000 м дым ясно +31.0 +26.1 75 +46 +46 опасность
перегрева
999.7 979.7
00 14.08 штиль 0 4000 м дым ясно +30.0 +25.8 78 +45 +45 опасность
перегрева
999.6 979.4
03 14.08 штиль 0 4000 м дым ясно +32.0 +26.5 73 +49 +57 опасность
перегрева
1000.8 980.6 +29.0
06 14.08 штиль 0 4000 м дым 4/0
[Ac trans]
+35.0 +26.8 63 +53 +72 опасность
перегрева
1001.6 981.6
09 14.08 штиль 0 4000 м дым 5/5 1200 м
[Sc diur, vesp]
+38.0 +25.6 49 +52 +63 опасность
перегрева
1001.5 981.9
12 14.08 штиль 0 4000 м дым 8/4 1200 м
[Sc Ac trans]
+37.0 +25.2 51 +51 +52 опасность
перегрева
1000.7 980.9 +38.5
15 14.08 штиль 0 4000 м дым 8/4 1200 м
[Sc Ac trans]
+36.0 +24.9 53 +49 +49 опасность
перегрева
1000.7 981.0
18 14.08 штиль 0 4000 м дым 4/4 1200 м
[Sc]
+34.5 +25.5 60 +49 +49 опасность
перегрева
1002.6 982.6
21 14.08 штиль 0 4000 м дым ясно +32.0 +26.5 73 +49 +49 опасность
перегрева
1002.0 982.0
00 15.08 штиль 0 4000 м дым 4/4 1200 м
[Sc]
+30.0 +27.3 85 +48 +48 опасность
перегрева
1002.5 982.3
03 15.08 штиль 0 4000 м дым 4/4 1200 м
[Sc]
+32.0 +27.9 79 +52 +57 опасность
перегрева
1003.2 983.0 +29.0
06 15.08 штиль 0 4000 м дым 4/4 1200 м
[Sc]
+36.0 +27.2 61 +55 +70 опасность
перегрева
1003.0 983.2
09 15.08 штиль 0 4000 м 8/4 1200 м
[Sc Ac trans]
+36.5 +27.0 58 +54 +62 опасность
перегрева
1001.5 981.8
12 15.08 ЮВ 1 4000 м 8/4 1200 м
[Sc Ac trans]
+35.5 +26.6 60 +52 +54 опасность
перегрева
1000.4 980.6 +37.5
15 15.08 штиль 0 4000 м ясно +32.5 +26.3 70 +49 +49 опасность
перегрева
1000.1 980.1
18 15.08 штиль 0 4000 м ясно +30.5 +27.1 82 +48 +48 опасность
перегрева
1001.7 981.5
21 15.08 СВ 1 4000 м дым 8/3 1200 м
[Sc diur, vesp Ac As]
+30.0 +26.5 82 +46 +46 опасность
перегрева
1001.7 981.4
00 16.08 штиль 0 4000 м 5/0
[Ac trans]
+29.5 +26.7 85 +46 +46 опасность
перегрева
1001.6 981.4
03 16.08 штиль 0 4000 м ясно +31.5 +26.0 73 +47 +55 опасность
перегрева
1001.9 981.7 +29.0
06 16.08 штиль 0 4000 м дым 6/3 1200 м
[Sc diur, vesp Ac As]
+35.5 +26.6 60 +52 +65 опасность
перегрева
1001.0 981.2
09 16.08 СВ 1 4000 м дым 8/3 1200 м
[Sc diur, vesp Ac As]
+36.0 +25.6 55 +51 +57 опасность
перегрева
999.6 979.8
12 16.08 СВ 3 2000 м гроза, ливневой дождь 9/6 900 м
[Cb cap Ac As]
+30.0 +24.3 72 +42 +43 опасность
перегрева
1001.1 980.4 +36.5 8
15 16.08 штиль 0 4000 м дым {гроза, дождь} 6/3 1200 м
[Sc diur, vesp Ac As]
+28.0 +25.9 88 +42 +42 опасность
перегрева
999.6 979.2 20
18 16.08 штиль 0 4000 м дым 8/4 1200 м
[Sc diur, vesp Ac As]
+27.5 +25.4 88 +40 +40 очень
душно
1000.6 980.2
21 16.08 штиль 0 4000 м дым 8/4 1200 м
[Sc diur, vesp Ac As]
+27.0 +24.9 88 +39 +39 очень
душно
1000.1 979.6
00 17.08 штиль 0 4000 м дым 6/3 1200 м
[Sc diur, vesp Ac As]
+28.0 +25.9 88 +42 +42 опасность
перегрева
1000.1 979.7
03 17.08 штиль 0 4000 м дым 4/0
[Ac trans]
+31.0 +25.4 72 +45 +51 опасность
перегрева
1001.0 980.8 +26.5
06 17.08 штиль 0 4000 м дым 8/4 1200 м
[Sc diur, vesp Ac As]
+32.0 +25.3 68 +46 +54 опасность
перегрева
1001.8 981.8
09 17.08 СВ 2 4000 м дым 8/5 1200 м
[Sc diur, vesp Ac As]
+33.5 +25.1 62 +48 +52 опасность
перегрева
1000.4 980.4
12 17.08 СВ 2 4000 м дым 8/4 1200 м
[Sc diur, vesp Ac As]
+33.0 +24.6 61 +46 +47 опасность
перегрева
999.9 979.9 +34.0
15 17.08 С 1 4000 м дым 4/0
[Ac trans]
+29.0 +24.0 74 +40 +40 очень
душно
1001.2 980.8
18 17.08 штиль 0 4000 м дым 4/0
[Ac trans]
+28.0 +23.7 77 +38 +38 очень
душно
1002.5 982.1
21 17.08 штиль 0 4000 м дым 4/0
[Ac trans]
+27.0 +22.6 77 +36 +36 очень
душно
1002.8 982.4
00 18.08 штиль 0 4000 м дым 4/0
[Ac trans]
+26.0 +22.3 80 +34 +34 очень
душно
1003.3 982.7
03 18.08 СВ 1 4000 м дым 4/0
[Ac trans]
+29.0 +22.7 69 +38 +44 очень
душно
1003.8 983.2 +26.0
06 18.08 штиль 0 4000 м дым 4/0
[Ac trans]
+32.5 +23.4 59 +43 +62 опасность
перегрева
1003.7 983.7
09 18.08 штиль 0 4000 м дым 6/3
[Sc diur, vesp Ac As]
+35.5 +25.1 55 +49 +60 опасность
перегрева
1003.2 983.4
12 18.08 ЮВ 1 4000 м дым 8/0
[Ac trans]
+34.5 +24.7 57 +48 +50 опасность
перегрева
1002.4 982.4 +36.0
18 18.08 штиль 0 4000 м дым ясно +30.0 +25.1 75 +43 +43 опасность
перегрева
1003.4 983.2
21 18.08 штиль 0 4000 м дым 5/5
[Cb calv Ac cuf]
+28.0 +23.7 77 +38 +38 очень
душно
1002.9 982.6
00 19.08 С 2 4000 м дым {морось} 8/5 1200 м
[Sc As op]
+25.0 +22.0 83 +32 +32 очень
душно
1003.3 982.7 0.0
03 19.08 штиль 0 4000 м дым 4/0
[Ac trans]
+26.0 +21.5 76 +33 +39 очень
душно
1004.5 983.9 +24.0
06 19.08 штиль 0 4000 м дым ясно +30.0 +21.1 59 +38 +62 опасность
солнечного
удара
1006.0 985.8

 

Местоположение метеостанции Окара (Пакистан): широта 30.80 долгота 73.43 высота над уровнем моря 180 м.

В архиве по умолчанию представлена погода в Окаре за последнюю неделю. Архивные данные за месяц целиком и за предыдущие месяцы, начиная с января 2011 года, Вы можете получить, выбрав интересующий диапазон дат из раскрывающегося списка и нажав кнопку "Ввод!".


*Определитесь, кто Вы:
робот инопланетянин человек

Внимание! Время в таблицах - всемирное. Для получения местного времени необходимо прибавить поправку, которая равна 5 ч.

Смотрите также архив погоды в соседних городах и на ближайших метеорологических станциях:

Погода в Сахивале (Пакистан) (42 км)
Погода в Фейсалабаде (Пакистан) (77 км)
Погода в Тоба Тек Сингх (Пакистан) (94 км)
Погода в Бахавалнагаре (Пакистан) (96 км)
Погода в Касуре (Пакистан) (105 км)
Погода в Шри-Ганганагаре (Раджастхан, Индия) (106 км)
Погода на Авиабазе Raifiqui (Пакистан) (118 км)
Погода в Джанге (Пакистан) (118 км)
Погода в Лахоре (Пакистан) (120 км)
Погода в Лахор аэропорту (Пакистан) (122 км)

Пояснения к столбцам:

Ветер - указаны скорость ветра в м/с - средняя за 10 мин, порывы в срок и между сроками (в фигурных скобках) и направление, откуда дует ветер: С - северный, СВ - северо-восточный, В - восточный, ЮВ - юго-восточный, Ю - южный, ЮЗ - юго-западный, З - западный, СЗ - северо-западный.
Видимость - горизонтальная дальность видимости в метрах или километрах. При видимости от 1 до 10 км при отсутствии осадков обычно наблюдается дымка, при ухудшении видимости до 1 км и менее - туман. В сухую погоду видимость может ухудшаться дымом, пылью или мглою.
Явления - указаны атмосферные явления, наблюдавшиеся в срок или в последний час перед сроком; фигурными скобками обозначены явления, наблюдавшиеся между сроками (за 1-3 часа до срока); квадратными скобками обозначены град или гололедные отложения с указанием их диаметра в мм.
Облачность - указаны через наклонную черту общая и нижняя облачность в баллах и высота нижней границы облаков в метрах; квадратными скобками обозначены формы облаков: Ci - перистые, Cs - перисто-слоистые, Cc - перисто-кучевые, Ac - высококучевые, As - высокослоистые, Sc - слоисто-кучевые, Ns - слоисто-дождевые, Cu - кучевые, Cb - кучево-дождевые. Подробнее классификацию облаков см. в Атласе облаков (PDF).
T - Температура воздуха - температура, измеренная на высоте 2 м над землей.
Td - Температура точки росы - температура, при понижении до которой содержащийся в воздухе водяной пар достигнет насыщения.
f - Относительная влажность воздуха - влажноcть воздуха, измеренная на высоте 2 м над землей.
Te - Эффективная температура - температура, которую ощущает одетый по сезону человек в тени. Характеристика душности погоды. При расчете учитывается влияние влажности воздуха и скорости ветра на теплоощущения человека.
Tes - Эффективная температура на солнце - температура, которую ощущает человек, с поправкой на солнечный нагрев. Характеристика знойности погоды. Зависит от высоты солнца над горизонтом, облачности и скорости ветра. Ночью, в пасмурную погоду, а также при ветре 12 м/с и более поправка равна нулю.
P - Атмосферное давление - приведенное к уровню моря атмосферное давление.
Po - Атмосферное давление - измеренное на уровне метеостанции атмосферное давление.
Tmin - Минимальная температура - минимум температуры воздуха на высоте 2 м над землей.
Tmax - Максимальная температура - максимум температуры воздуха на высоте 2 м над землей.
R - Количество осадков - Количество выпавших осадков за период времени, мм. При наведении курсора мыши на число - период времени, за который выпало указанное количество осадков.
R24 - Количество осадков - Количество выпавших осадков за 24 часа, мм.
S - Снежный покров - Высота снежного покрова, см. При наведении курсора мыши на число - состояние снежного покрова и степень покрытия местности в баллах.